TimeMST,TemperatureF,Dew PointF,Humidity,Sea Level PressureIn,VisibilityMPH,Wind Direction,Wind SpeedMPH,Gust SpeedMPH,PrecipitationIn,Events,Conditions,WindDirDegrees,DateUTC
12:54 AM,50.0,27.0,41,30.06,10.0,NE,4.6,-,N/A,,Scattered Clouds,40,2013-02-03 07:54:00
1:54 AM,51.1,26.1,38,30.03,10.0,SSE,3.5,-,N/A,,Clear,160,2013-02-03 08:54:00
2:54 AM,50.0,27.0,41,30.01,10.0,ENE,3.5,-,N/A,,Clear,70,2013-02-03 09:54:00
3:54 AM,48.9,27.0,43,30.00,10.0,NE,4.6,-,N/A,,Clear,50,2013-02-03 10:54:00
4:54 AM,48.0,27.0,44,29.99,10.0,Calm,Calm,-,N/A,,Mostly Cloudy,0,2013-02-03 11:54:00
5:54 AM,48.9,26.1,41,29.99,10.0,Calm,Calm,-,N/A,,Clear,0,2013-02-03 12:54:00
6:54 AM,48.0,28.9,48,30.01,10.0,Calm,Calm,-,N/A,,Partly Cloudy,0,2013-02-03 13:54:00
7:54 AM,48.0,30.0,50,30.01,10.0,Calm,Calm,-,N/A,,Mostly Cloudy,0,2013-02-03 14:54:00
8:54 AM,52.0,28.9,41,30.01,10.0,Calm,Calm,-,N/A,,Overcast,0,2013-02-03 15:54:00
9:54 AM,55.0,30.0,38,30.02,10.0,Calm,Calm,-,N/A,,Overcast,0,2013-02-03 16:54:00
10:54 AM,61.0,23.0,23,30.00,10.0,Calm,Calm,-,N/A,,Overcast,0,2013-02-03 17:54:00
11:54 AM,64.9,21.9,19,29.98,10.0,WNW,6.9,-,N/A,,Mostly Cloudy,300,2013-02-03 18:54:00
12:54 PM,64.9,21.0,19,29.96,10.0,West,5.8,-,N/A,,Overcast,260,2013-02-03 19:54:00
1:54 PM,62.1,30.9,31,29.96,10.0,NNW,8.1,-,0.00,Rain,Light Rain,340,2013-02-03 20:54:00
2:54 PM,62.1,34.0,35,29.94,10.0,Variable,3.5,-,0.00,,Overcast,0,2013-02-03 21:54:00
3:54 PM,63.0,32.0,31,29.92,10.0,Calm,Calm,-,N/A,,Partly Cloudy,0,2013-02-03 22:54:00
4:54 PM,64.9,32.0,29,29.91,10.0,SW,4.6,-,N/A,,Scattered Clouds,220,2013-02-03 23:54:00
5:54 PM,61.0,33.1,35,29.92,10.0,South,3.5,-,N/A,,Partly Cloudy,190,2013-02-04 00:54:00
6:54 PM,52.0,35.1,53,29.96,10.0,East,4.6,-,N/A,,Clear,80,2013-02-04 01:54:00
7:54 PM,51.1,35.1,54,29.96,10.0,Calm,Calm,-,N/A,,Clear,0,2013-02-04 02:54:00
8:54 PM,51.1,34.0,52,29.97,10.0,SSE,3.5,-,N/A,,Overcast,150,2013-02-04 03:54:00
9:54 PM,50.0,35.1,57,29.97,10.0,East,4.6,-,N/A,,Overcast,90,2013-02-04 04:54:00
10:54 PM,50.0,35.1,57,29.95,10.0,Calm,Calm,-,N/A,,Overcast,0,2013-02-04 05:54:00
11:54 PM,50.0,36.0,59,29.94,10.0,SSE,3.5,-,N/A,,Overcast,160,2013-02-04 06:54:00